Weather observations for the past three days for
Greensboro, Piedmont Triad International Airport
Imperial (Metric)
Date Time (edt) Wind (mph) Vis. (mi.) Weather Sky Cond. Temperature (ºF) Relative Humidity Wind Chill (°F) Heat Index (°F) Pressure Precipitation (in)
Air Dwpt 6 hour altimeter (in) sea level (mb) 1 hr 3 hr 6 hr
Max. Min.
20 07:54 Calm 10.00 Mostly Cloudy BKN060 BKN250 72 64.9 72 66.9 79% 30.37 1027.4
20 06:54 Calm 10.00 Mostly Cloudy BKN055 BKN250 68 63 84% 30.35 1026.8
20 05:54 S 3 10.00 Mostly Cloudy FEW050 BKN250 66.9 63 87% 30.34 1026.3
20 04:54 S 6 10.00 Mostly Cloudy FEW050 BKN250 68 62.1 81% 30.33 1025.9
20 03:54 S 3 10.00 Mostly Cloudy BKN250 68 62.1 81% 30.31 1025.5
20 02:54 S 5 10.00 Mostly Cloudy BKN250 69.1 62.1 78% 30.31 1025.2
20 01:54 SE 6 10.00 Mostly Cloudy BKN250 71.1 63 80.1 70 76% 30.31 1025.3
20 00:54 E 3 10.00 Mostly Cloudy BKN250 72 64.9 79% 30.31 1025.4
19 23:54 Calm 10.00 Mostly Cloudy BKN250 73.9 64 71% 30.32 1025.6
19 22:54 NE 3 10.00 Mostly Cloudy FEW070 BKN250 75 64 69% 77 30.32 1025.6
19 21:54 Calm 10.00 Mostly Cloudy BKN250 77 63 62% 79 30.31 1025.4
19 20:54 E 5 10.00 Mostly Cloudy FEW060 BKN250 78.1 62.1 58% 80 30.3 1025.0
19 19:54 E 7 10.00 Mostly Cloudy FEW060 BKN250 80.1 61 86 80.1 52% 81 30.3 1024.9
19 18:54 E 12 10.00 Mostly Cloudy BKN055 BKN250 82.9 60.1 46% 83 30.3 1024.9
19 17:54 E 9 10.00 Mostly Cloudy SCT060 BKN250 82.9 60.1 46% 83 30.3 1024.9
19 16:54 Vrbl 6 10.00 Mostly Cloudy SCT055 BKN250 84.9 60.1 43% 85 30.3 1024.9
19 15:54 Vrbl 6 10.00 Mostly Cloudy SCT055 BKN250 84 60.1 44% 84 30.31 1025.3
19 14:54 E 8 10.00 Mostly Cloudy SCT050 BKN250 84 61 46% 84 30.33 1025.9
19 13:54 SE 12 10.00 Mostly Cloudy SCT045 BKN250 82.9 60.1 84 71.1 46% 83 30.34 1026.4
19 12:54 E 7 10.00 Mostly Cloudy SCT044 BKN250 81 62.1 53% 82 30.36 1027.0
19 11:54 E 8 10.00 Overcast SCT039 OVC250 79 63 58% 81 30.36 1026.9
19 10:54 E 6 10.00 Overcast FEW040 FEW055 OVC250 77 62.1 60% 79 30.36 1027.1
19 09:54 Calm 10.00 Overcast FEW034 FEW055 OVC250 77 62.1 60% 79 30.36 1027.1
19 08:54 Calm 10.00 Overcast SCT050 OVC250 72 63 73% 30.36 1027.0
19 07:54 N 3 10.00 Overcast FEW050 OVC250 71.1 64 71.1 66 79% 30.35 1026.6
19 06:54 N 3 10.00 Overcast FEW150 OVC250 66.9 62.1 84% 30.32 1025.7
19 05:54 Calm 10.00 Mostly Cloudy BKN250 66.9 61 81% 30.31 1025.3
19 04:54 S 5 10.00 Mostly Cloudy BKN250 66.9 61 81% 30.29 1024.8
19 03:54 Calm 10.00 Mostly Cloudy BKN250 68 62.1 81% 30.28 1024.4
19 02:54 S 5 10.00 Mostly Cloudy BKN250 69.1 62.1 78% 30.27 1023.9
19 01:54 S 6 10.00 Mostly Cloudy BKN250 70 62.1 82 70 76% 30.26 1023.6
19 00:54 S 10 10.00 Mostly Cloudy BKN250 73 62.1 69% 30.25 1023.3
18 23:54 NE 5 10.00 Overcast OVC250 73.9 63 69% 30.26 1023.4
18 22:54 NE 3 10.00 Mostly Cloudy BKN250 77 61 58% 79 30.25 1023.2
18 21:54 E 6 10.00 A Few Clouds FEW250 77 61 58% 79 30.24 1022.8
18 20:54 SE 7 10.00 A Few Clouds FEW045 FEW250 80.1 61 52% 81 30.22 1022.3
18 19:54 SE 6 10.00 A Few Clouds FEW046 FEW250 82 63 87.1 82 53% 83 30.21 1022.0
18 18:54 SE 9 10.00 A Few Clouds FEW047 FEW250 84 63 49% 85 30.2 1021.7
18 17:54 E 8 10.00 Partly Cloudy SCT046 SCT250 86 64 48% 87 30.2 1021.6
18 16:54 E 10 G 17 10.00 Mostly Cloudy BKN049 BKN250 84.9 64.9 51% 87 30.22 1022.2
18 15:54 SE 10 10.00 Mostly Cloudy BKN055 BKN250 86 66 51% 88 30.23 1022.5
18 14:54 E 7 10.00 Mostly Cloudy BKN042 BKN250 82 64.9 56% 84 30.24 1022.9
18 13:54 Vrbl 6 10.00 Mostly Cloudy BKN042 BKN250 84 66 84.9 72 55% 86 30.25 1023.2
18 12:54 SE 8 10.00 Overcast SCT039 BKN048 OVC250 82 66 58% 84 30.26 1023.5
18 11:54 S 7 10.00 Overcast BKN037 BKN045 OVC250 81 64.9 58% 83 30.26 1023.5
18 10:54 S 6 10.00 Overcast SCT037 BKN070 OVC250 78.1 62.1 58% 80 30.26 1023.7
18 09:54 Vrbl 5 10.00 Overcast FEW048 SCT070 OVC250 77 66 69% 79 30.26 1023.6
18 08:54 S 8 10.00 Overcast SCT034 BKN048 OVC065 73.9 66 76% 30.26 1023.7
18 07:54 S 8 10.00 Mostly Cloudy SCT035 BKN049 BKN250 72 64.9 73.9 68 79% 30.25 1023.3
18 06:54 S 6 10.00 Overcast BKN035 OVC047 70 64.9 84% 30.24 1022.9
18 05:54 S 5 10.00 Partly Cloudy FEW041 SCT250 69.1 64.9 87% 30.22 1022.1
18 04:54 S 6 10.00 Mostly Cloudy FEW045 BKN250 70 66 87% 30.2 1021.5
18 03:54 S 6 10.00 Mostly Cloudy FEW045 BKN250 71.1 66.9 87% 30.19 1021.2
18 02:54 S 7 10.00 Mostly Cloudy BKN250 73 66.9 81% 30.2 1021.5
18 01:54 S 8 10.00 Mostly Cloudy BKN250 73.9 68 82 73.9 82% 30.2 1021.4
18 00:54 S 6 10.00 Mostly Cloudy BKN250 75 68 79% 76 30.19 1021.2
17 23:54 S 3 10.00 Mostly Cloudy BKN250 75.9 69.1 79% 77 30.19 1021.2
17 22:54 Calm 10.00 Overcast FEW030 OVC250 78.1 69.1 74% 80 30.2 1021.3
17 21:54 SE 3 10.00 Overcast FEW030 OVC250 79 69.1 72% 82 30.18 1020.8
17 20:54 Calm 10.00 Overcast FEW030 OVC250 80.1 69.1 69% 83 30.16 1020.2
17 19:54 S 7 10.00 Overcast FEW033 OVC250 82 69.1 88 82 65% 85 30.14 1019.5
17 18:54 S 12 10.00 Overcast FEW035 OVC250 84 70 63% 88 30.13 1019.2
17 17:54 SE 12 10.00 Mostly Cloudy SCT040 BKN250 86 69.1 57% 90 30.13 1018.9
17 16:54 S 9 10.00 Mostly Cloudy SCT037 BKN250 87.1 71.1 59% 93 30.14 1019.5
17 15:54 S 7 10.00 Overcast BKN034 BKN047 OVC250 86 71.1 61% 92 30.17 1020.3
17 14:54 Vrbl 5 10.00 Overcast BKN031 BKN042 OVC250 87.1 72 61% 94 30.18 1020.6
17 13:54 S 6 10.00 Overcast FEW029 BKN031 OVC250 84.9 71.1 84.9 73 63% 90 30.2 1021.2
17 12:54 SW 5 10.00 Overcast BKN024 BKN032 OVC250 82.9 71.1 67% 88 30.21 1021.8
17 11:54 S 6 10.00 Overcast BKN024 OVC250 80.1 70 71% 83 30.22 1022.1
17 10:54 S 6 10.00 Overcast FEW018 OVC021 77 68 74% 79 30.23 1022.6
17 09:54 S 7 9.00 Overcast BKN018 OVC027 73.9 66 76% 30.23 1022.8
17 08:54 S 12 10.00 Overcast BKN015 OVC024 73.9 66 76% 30.23 1022.7
Date Time (edt) Wind (mph) Vis. (mi.) Weather Sky Cond. Air Dwpt Max. Min. Relative Humidity Wind Chill (°F) Heat Index (°F) altimeter (in) sea level (mb) 1 hr 3 hr 6 hr
6 hour
Temperature (ºF) Pressure Precipitation (in)